Location: Groß Mahner
(52.0523°N, 10.4093°E)
Time: 05:47:07
(UTC+00:00)

Daily predictions for brighter satellites

Satellite Brightness Start Highest point End
(mag) Time Altitude Azimuth Time Altitude Azimuth Time Altitude Azimuth
Cosmos 1726 Rocket 4.0 00:07:11 51° E 00:07:11 51° E 00:11:06 10° NNE
Cosmos 1331 Rocket 4.4 00:06:53 49° W 00:07:47 55° WNW 00:12:58 10° NNE
Cosmos 1536 4.2 00:08:51 10° N 00:12:04 28° ENE 00:12:16 28° ENE
DELTA 2 DEB (DPAF) 4.4 00:09:13 10° NNE 00:11:57 49° N 00:11:57 49° N
ATLAS 2AS CENTAUR R/B 2.8 00:09:45 35° WSW 00:12:51 69° NW 00:19:41 10° NE
IDEFIX/ARIANE 42P 3.9 00:10:48 10° NE 00:15:14 28° E 00:16:41 24° ESE
Meteor 1-5 Rocket 4.1 00:15:05 10° NNW 00:20:25 65° W 00:20:58 61° SW
Cosmos 1953 Rocket 3.5 00:17:42 10° N 00:22:10 77° ENE 00:22:18 76° E
Cosmos 1980 Rocket 2.6 00:19:06 10° NW 00:24:19 43° WSW 00:24:19 43° WSW
Cosmos 1766 4.3 00:21:53 10° N 00:24:17 34° NE 00:24:17 34° NE
USA 234 3.6 00:20:13 10° E 00:26:40 64° NNE 00:33:09 10° WNW
Cosmos 44 Rocket 3.9 00:29:47 42° SE 00:30:04 43° ESE 00:34:57 10° NE
Cosmos 1707 4.3 00:31:24 22° ENE 00:31:24 22° ENE 00:32:56 10° NNE
Cosmos 1825 Rocket 4.0 00:28:39 10° NNW 00:32:19 48° WNW 00:32:19 48° WNW
COSMOS 2406 4.0 00:32:29 34° SE 00:33:51 40° ESE 00:39:10 10° NE
Meteor 2-10 4.3 00:30:00 10° NNW 00:35:21 57° W 00:36:02 53° SW
Cosmos 2369 3.7 00:30:13 10° NW 00:35:51 63° WSW 00:36:37 57° SSW
Cosmos 1634 Rocket 4.1 00:35:56 44° SSE 00:37:57 70° E 00:44:06 10° NNE
Cosmos 724 4.4 00:44:49 48° S 00:46:18 63° SE 00:52:12 10° NE
Cosmos 2084 3.3 00:46:23 72° WNW 00:46:31 73° NW 00:50:41 10° NE
Spot 1 3.8 00:42:48 10° NNE 00:46:56 86° ESE 00:47:07 81° S
Cosmos 1607 4.2 00:47:22 43° S 00:49:01 55° ESE 00:55:07 10° NE
Cosmos 2360 Rocket 3.0 00:46:06 10° NNW 00:51:38 50° NE 00:57:09 10° SE
Cosmos-2242 2.8 00:52:12 76° SSE 00:52:28 81° E 00:56:41 10° NNE
Cosmos 2333 Rocket 2.3 00:47:05 10° NNW 00:52:47 76° ENE 00:57:04 18° SE
FENGYUN 3A 4.5 00:49:16 10° NNE 00:54:28 43° E 00:56:43 29° SSE
USA 281 3.1 00:51:27 24° SSE 00:55:45 87° WSW 01:02:24 10° NNW
Cosmos 2082 Rocket 2.2 00:59:24 47° SW 01:01:09 78° WNW 01:06:54 10° NNE
Cosmos 1842 3.9 01:02:44 37° E 01:02:44 37° E 01:05:36 10° NNE
Cosmos 1833 Rocket 4.3 01:00:04 15° W 01:03:31 26° NW 01:08:12 10° NNE
Meteor 2-2 Rocket 4.2 01:02:52 45° S 01:04:44 85° E 01:10:24 10° NNE
Cosmos 2278 3.7 01:00:48 10° NNW 01:06:34 85° ENE 01:11:11 16° SSE
Cosmos 2279 Rocket 4.0 01:03:59 37° S 01:06:38 79° E 01:12:55 10° NNE
Meteor 2-9 Rocket 4.5 01:01:32 10° N 01:06:51 61° ENE 01:10:19 21° SSE
Cosmos 2322 Rocket 2.5 01:01:24 10° NNW 01:07:02 66° NE 01:12:39 10° SE
Cosmos 1486 Rocket 3.9 01:02:04 10° NNW 01:07:18 85° WSW 01:09:36 35° SSE
NPP 4.1 01:02:22 10° NNE 01:07:41 56° ESE 01:09:56 33° SSE
Resurs 1-4 Rocket 4.0 01:03:59 10° NE 01:08:15 24° E 01:12:17 11° SE
Cosmos 1867 4.4 01:06:15 25° W 01:08:58 44° NW 01:14:12 10° NE
Cosmos 2221 3.5 01:07:40 29° SE 01:09:00 38° E 01:12:50 10° NNE
NOSS 3-3 (A) 4.0 01:14:12 39° S 01:15:56 55° SE 01:22:00 10° NE
ACS3 Solar Sail 1.9 01:10:16 10° N 01:16:11 61° WNW 01:18:33 37° SW
Cosmos 1777 Rocket 3.9 01:12:39 10° NNW 01:17:57 81° WSW 01:20:41 29° SSE
Cosmos 2219 Rocket 3.0 01:15:27 10° NNW 01:20:58 52° NE 01:26:29 10° SE
SL-16 R/B 2.1 01:16:27 10° NW 01:22:04 65° WSW 01:24:52 30° S
H-2A R/B 4.1 01:18:56 10° NE 01:22:54 22° E 01:26:55 10° SE
GP-B 3.8 01:18:58 10° NNW 01:23:00 37° W 01:23:25 36° W
Meteor 1-11 Rocket 4.3 01:17:21 10° N 01:23:13 59° ENE 01:28:55 10° SSE
CZ-4C R/B 2.0 01:22:06 41° WSW 01:23:39 70° NW 01:29:25 10° NE
Cosmos 1271 Rocket 3.3 01:27:38 37° SE 01:28:24 44° E 01:31:44 10° NNE
Meteor 1-14 Rocket 4.2 01:23:23 10° NNW 01:29:11 86° W 01:32:37 25° S
ATLAS 3B R/B 4.0 01:23:47 10° WNW 01:29:21 22° WSW 01:29:24 22° WSW
SL-4 R/B 2.8 01:31:34 32° SSE 01:31:34 32° SSE 01:33:54 10° SE
USA 267 4.0 01:24:46 10° ENE 01:30:55 40° SE 01:34:01 26° S
NOSS 3-3 (C) 4.0 01:30:27 35° S 01:32:39 60° SE 01:38:53 10° NE
Cosmos 2058 Rocket 3.5 01:32:04 41° WSW 01:32:59 48° WNW 01:37:16 10° N
Cosmos 2266 Rocket 3.9 01:28:34 10° N 01:34:45 90° WSW 01:39:09 20° S
Cosmos 1470 2.2 01:32:52 10° NNW 01:36:12 71° W 01:36:16 71° WSW
Gbstr 26 Del rocket 2.8 01:37:23 49° S 01:37:23 49° S 01:40:32 10° SE
KORONAS-FOTON 3.7 01:38:28 52° W 01:38:32 52° WNW 01:41:49 10° N
USA 290 4.1 01:37:48 19° SE 01:38:44 22° ESE 01:41:16 10° NE
Cosmos 909 Rocket 4.3 01:37:59 27° WSW 01:41:29 61° NW 01:47:57 10° NE
Cosmos 1536 3.9 01:44:10 10° NNW 01:46:48 25° WNW 01:46:48 25° WNW
Cosmos 2333 4.1 01:41:53 10° NNW 01:47:35 87° WSW 01:53:18 10° SSE
Cosmos 1655 Rocket 4.4 01:43:36 10° N 01:49:50 65° ENE 01:56:00 10° SSE
DMSP B5D2-2 4.0 01:45:23 13° SSE 01:50:01 88° ENE 01:55:15 10° NNW
Cosmos 1812 Rocket 3.5 01:49:34 31° S 01:51:36 80° E 01:55:58 10° NNE
Meteor 2-6 Rocket 4.4 01:49:06 30° SSW 01:52:00 66° WNW 01:57:55 10° N
NOSS 3-4 (A) 3.8 01:45:53 10° NW 01:52:26 86° NE 02:00:13 10° SE
NOSS 3-4 (C) 3.8 01:46:25 10° NW 01:53:00 86° NE 02:00:47 10° SE
IDEFIX/ARIANE 42P 2.9 01:49:55 10° N 01:54:57 53° WNW 01:57:22 29° SW
COSMOS 2441 4.3 01:52:15 10° NNE 01:57:05 89° ESE 01:59:44 27° SSW
Envisat 3.4 01:52:36 10° NNE 01:57:39 61° ESE 02:01:23 18° S
Aureole 1 Rocket 3.3 01:54:57 10° NNW 01:58:57 74° ENE 02:04:00 10° SSE
Meteor 2-20 4.5 01:54:40 20° S 01:59:09 83° E 02:05:19 10° NNE
Cosmos 2084 Rocket 3.3 01:58:39 10° NW 02:02:48 61° SW 02:06:58 10° SSE
Cosmos 1707 4.1 02:03:05 16° WNW 02:03:05 16° WNW 02:04:48 10° NNW
ATLAS 2AS CENTAUR R/B 4.0 01:58:39 10° W 02:04:50 34° NNW 02:10:59 10° NE
SWARM C 4.4 02:01:39 10° N 02:04:55 86° E 02:06:24 30° S
SWARM A 4.3 02:01:44 10° N 02:05:00 72° E 02:06:47 24° SSE
Iridium 4 Rocket 3.3 02:03:00 21° S 02:06:13 90° NW 02:11:22 10° N
MOZ.5/SAFIR/RUBIN 5/SL-8 4.0 02:05:32 25° SSW 02:07:59 50° W 02:12:31 10° NNW
Meteor 1-27 Rocket 4.2 02:03:31 12° S 02:08:53 64° E 02:14:45 10° NNE
H-2A R/B 2.0 02:06:25 17° SSE 02:09:07 85° WSW 02:12:43 10° NNW
USA 234 3.2 02:03:07 10° SE 02:09:40 75° SSW 02:16:15 10° WNW
Cosmos 1975 3.2 02:06:30 10° NNW 02:09:52 36° W 02:10:35 33° WSW
Cosmos 990 Rocket 4.0 02:05:33 10° NNW 02:10:35 56° WSW 02:15:36 10° S
ADEOS II 2.9 02:06:04 10° NNE 02:11:10 49° E 02:16:12 10° S
Cosmos 44 Rocket 4.1 02:08:21 21° WSW 02:11:30 47° NW 02:16:32 10° NE
ALOS 2.5 02:11:13 10° NNE 02:15:46 67° ESE 02:19:31 15° S
MSX 4.5 02:11:00 10° N 02:16:21 42° WNW 02:19:47 21° WSW
Cosmos 1763 Rocket 3.5 02:13:17 23° SSW 02:16:37 84° WNW 02:21:58 10° NNE
Cosmos 1238 Rocket 2.7 02:15:06 21° SSE 02:16:45 51° E 02:19:43 10° NNE
COSMOS 2406 3.8 02:14:30 21° WSW 02:18:05 47° NW 02:23:39 10° NNE
CZ-2D R/B 2.3 02:14:31 10° NNE 02:19:48 74° ESE 02:24:32 13° S
COSMOS 2428 3.7 02:14:23 10° NNW 02:19:59 52° NE 02:25:32 10° SE
SL-16 R/B 3.4 02:15:47 10° SE 02:21:49 53° ENE 02:27:53 10° N
ADEOS Rocket 3.7 02:15:14 10° N 02:22:38 64° WNW 02:28:49 17° SW
Sich 1 4.3 02:20:44 10° N 02:24:42 40° ENE 02:28:36 10° SE
Cosmos 1898 Rocket 3.6 02:23:33 10° NNW 02:28:45 78° ENE 02:33:54 10° SSE
Spot 2 4.3 02:24:09 10° S 02:28:57 68° WSW 02:33:55 10° NNW
Cosmos 1354 Rocket 4.5 02:28:08 10° NW 02:33:00 38° WSW 02:37:49 10° S
Cosmos 1937 Rocket 3.9 02:28:04 10° NNW 02:33:17 66° ENE 02:38:25 10° SE
FENGYUN 3A 4.5 02:29:41 10° N 02:34:38 37° WNW 02:38:14 17° WSW
Cosmos 2360 Rocket 2.7 02:30:21 10° NW 02:35:29 36° WSW 02:40:36 10° S
Cosmos 2333 Rocket 3.3 02:32:11 10° NW 02:36:29 23° WSW 02:39:00 17° SW
SL-19 R/B 4.5 02:31:22 10° NNE 02:37:03 78° ESE 02:43:01 10° SSW
Alouette 2 Rocket 3.3 02:33:13 10° NNW 02:37:25 61° W 02:40:56 10° S
USA 305 2.1 02:38:24 19° NW 02:39:18 29° N 02:40:30 10° ENE
EP 1 4.4 02:37:14 10° NW 02:39:45 45° SW 02:42:25 10° SSE
USA 281 4.4 02:38:17 16° SW 02:41:06 21° W 02:45:58 10° NW
Meteor 2-10 Rocket 3.6 02:37:49 10° N 02:42:56 79° ENE 02:48:12 10° SSE
H-2A R/B 3.7 02:41:01 10° NNE 02:44:37 30° E 02:48:09 10° SSE
Cosmos 540 Rocket 3.7 02:41:19 17° SW 02:45:12 58° WNW 02:50:18 10° NNE
Cosmos 2221 3.7 02:43:58 17° WSW 02:46:08 25° WNW 02:49:36 10° N
Cosmos 2082 Rocket 3.9 02:41:41 10° W 02:46:09 23° NW 02:50:38 10° NNE
Cosmos 1553 Rocket 4.3 02:42:14 10° S 02:48:22 69° E 02:54:39 10° NNE
Resurs 1-4 Rocket 2.2 02:43:10 10° N 02:48:26 63° WNW 02:53:19 12° SSW
Cosmos 2322 Rocket 3.1 02:46:02 10° NW 02:50:39 26° WSW 02:55:14 10° SSW
Cosmos 468 Rocket 4.0 02:46:37 13° SSW 02:51:27 83° WNW 02:56:47 10° NNE
BREEZE-M DEB (TANK) 3.5 02:50:12 14° W 02:52:43 54° S 03:00:55 10° ESE
CZ-2C R/B 4.4 02:51:40 10° NE 02:55:50 27° E 02:59:53 10° SSE
Cosmos 1766 Rocket 3.9 02:52:20 10° NNW 02:56:28 43° W 03:00:32 10° SSW
ACS3 Solar Sail 3.7 02:54:14 10° NNW 02:57:30 15° NW 03:00:47 10° W
Cosmos 1833 4.3 02:53:59 13° SW 02:59:08 71° WNW 03:04:50 10° NNE
H-2A R/B 2.1 02:57:33 10° N 03:02:37 66° WNW 03:07:48 10° SSW
Cosmos 1271 Rocket 4.3 03:01:02 12° W 03:02:53 17° WNW 03:05:13 10° NNW
CRYOSAT 2 4.5 02:59:54 10° S 03:04:43 59° W 03:09:34 10° N
Cosmos 2219 Rocket 2.8 02:59:41 10° NW 03:04:44 34° WSW 03:09:45 10° S
Cosmos 2237 Rocket 3.3 02:59:26 10° NNW 03:05:01 50° NE 03:10:31 10° SE
SL-16 R/B 3.9 03:03:01 10° WNW 03:05:02 12° W 03:06:38 11° WSW
RESURS DK-1 3.7 03:02:23 10° NNW 03:06:11 42° NE 03:09:58 10° ESE
Cosmos 44 4.2 03:00:58 10° NW 03:06:21 62° NE 03:11:38 10° ESE
SL-4 R/B 3.4 03:05:08 12° WSW 03:06:56 16° SW 03:09:16 10° S
SL-14 R/B 3.7 03:05:54 10° S 03:09:44 62° E 03:13:36 10° NNE
USA 290 3.4 03:10:18 12° WSW 03:12:46 29° NW 03:15:36 10° N
CZ-4C R/B 3.7 03:08:23 10° WNW 03:12:52 30° NNW 03:18:32 10° NE
ARGOS 3.3 03:08:12 10° NNE 03:13:38 78° ESE 03:19:00 10° SSW
USA 267 3.3 03:07:46 10° ENE 03:14:22 88° NNW 03:20:57 10° WSW
Cosmos 1408 Rocket 3.7 03:10:23 10° N 03:14:42 77° E 03:18:57 10° SSE
Cosmos 1745 Rocket 4.2 03:09:09 10° N 03:15:22 79° E 03:21:29 10° SSE
METEOR-M 4.2 03:10:55 10° NNE 03:16:14 73° WNW 03:21:32 10° SSW
Gbstr 26 Del rocket 4.3 03:20:19 10° WSW 03:22:26 15° SW 03:24:35 10° S
Cosmos 2322 3.8 03:19:39 10° NW 03:25:16 58° WSW 03:30:50 10° S
